sat.trackr.live / text

‹ back to catalog

STARLINK-11224 [DTC]

NORAD 60304 · 2024-133D

PAYLOAD ACTIVE UNKNOWN

§ Identity

Operator
Country
US
Launch date
2024-07-28
Launch site
AFWTR
Launch vehicle
Mass (kg)
RCS (m²)

Purposes: comms

External: N2YO · Heavens-Above · Gunter

§ Orbital elements

Epoch: 2026-09-21T06:47:35.361024Z

Period
91.74 min
Inclination
53.1587°
Eccentricity
0.0001042
Mean motion
15.69709567 rev/d
Perigee alt
359.0 km
Apogee alt
360.4 km
Semi-major
6,737.9 km
B*
8.1717e-6
RAAN
262.0621°
Arg perigee
76.4016°
Mean anomaly
283.7118°
Rev number
12,453

§ Raw data

STARLINK-11224 [DTC]1 60304U 24133D   26264.28304816  .00000402  00000+0  81717-5 0  99922 60304  53.1587 262.0621 0001042  76.4016 283.7118 15.69709567124534

JSON: /api/v1/satellites/60304 · /tle

For live sub-satellite position, see the globe view (requires WebGL).

§ Visibility from observer

Set your observer location to see the next 7 days of passes ≥ 10°. The values pass through the URL so the page stays shareable.

No JS? Fill the form by hand. The geolocation button needs JavaScript.